�N����,����,�g�[���i���ԁj���x,�g�[�����x,��g�[���i���ցj���x,����
 2004/01/01, 0:00,23.6,39,20.3,13.2
 2004/01/01, 0:15,23.5,39,20.3,12.7
 2004/01/01, 0:30,23.2,40,20.2,12.8
 2004/01/01, 0:45,23,40,20,12.8
 2004/01/01, 1:00,22.6,40,19.9,12.9
 2004/01/01, 1:15,22.4,41,19.8,13.2
 2004/01/01, 1:30,22.2,40,19.7,13.3
 2004/01/01, 1:45,22,41,19.6,13.3
 2004/01/01, 2:00,21.7,41,19.5,13.4
 2004/01/01, 2:15,21.6,42,19.4,13.5
 2004/01/01, 2:30,21.4,42,19.3,13.6
 2004/01/01, 2:45,21.4,43,19.2,13.6
 2004/01/01, 3:00,21.1,42,19.2,13.7
 2004/01/01, 3:15,21.1,42,19,13.8
 2004/01/01, 3:30,20.9,42,19,13.9
 2004/01/01, 3:45,20.9,42,18.9,14
 2004/01/01, 4:00,20.8,42,18.8,14
 2004/01/01, 4:15,20.7,42,18.8,14.1
 2004/01/01, 4:30,20.5,41,18.6,14.2
 2004/01/01, 4:45,20.4,41,18.6,14.2
 2004/01/01, 5:00,20.4,41,18.5,14.3
 2004/01/01, 5:15,20.4,40,18.4,14.3
 2004/01/01, 5:30,20.3,40,18.4,14.4
 2004/01/01, 5:45,20.1,40,18.3,14.5
 2004/01/01, 6:00,20.1,40,18.3,14.5
 2004/01/01, 6:15,20,40,18.1,14.6
 2004/01/01, 6:30,20.1,40,18.2,14.7
 2004/01/01, 6:45,20,40,18,14.7
 2004/01/01, 7:00,19.9,40,18,14.8
 2004/01/01, 7:15,19.9,40,18,14.8
 2004/01/01, 7:30,19.9,41,17.9,14.9
 2004/01/01, 7:45,19.9,41,17.9,15
 2004/01/01, 8:00,19.8,41,17.9,15
 2004/01/01, 8:15,19.6,40,17.8,15.1
 2004/01/01, 8:30,19.7,40,17.8,15.2
 2004/01/01, 8:45,19.6,40,17.8,15.2
 2004/01/01, 9:00,19.6,39,17.7,15.3
 2004/01/01, 9:15,19.4,40,17.6,15.3
 2004/01/01, 9:30,19.4,39,17.6,15.4
 2004/01/01, 9:45,20.4,41,17.6,12.6
 2004/01/01,10:00,20.6,40,17.9,12.6
 2004/01/01,10:15,21,41,17.9,12.6
 2004/01/01,10:30,22.1,39,18.4,12.7
 2004/01/01,10:45,22.2,36,18.4,12.7
 2004/01/01,11:00,22.3,35,18.5,12.8
 2004/01/01,11:15,22.4,35,18.4,12.9
 2004/01/01,11:30,22.5,36,18.6,13
 2004/01/01,11:45,22.6,37,18.8,13
 2004/01/01,12:00,22.9,35,19,13.1
 2004/01/01,12:15,23.4,35,19.2,13.1
 2004/01/01,12:30,23.4,34,19.4,14.4
 2004/01/01,12:45,23.4,35,19.5,14.5
 2004/01/01,13:00,23.3,33,19.5,14.5
 2004/01/01,13:15,23.5,32,19.5,14.6
 2004/01/01,13:30,23.5,31,19.5,14.6
 2004/01/01,13:45,23.6,33,19.5,14.9
 2004/01/01,14:00,23.7,35,19.7,15.1
 2004/01/01,14:15,23.7,32,19.8,12.8
 2004/01/01,14:30,23.6,30,19.8,12.9
 2004/01/01,14:45,23.5,31,19.9,12.9
 2004/01/01,15:00,23.2,31,19.8,12.9
 2004/01/01,15:15,22.8,32,19.7,13
 2004/01/01,15:30,22.7,35,19.8,13.1
 2004/01/01,15:45,23.1,36,20,13
 2004/01/01,16:00,23.2,36,20.1,13.1
 2004/01/01,16:15,23.1,37,20.3,13.4
 2004/01/01,16:30,22.6,33,20.1,13.5
 2004/01/01,16:45,22.6,35,20.1,13.6
 2004/01/01,17:00,22.8,36,20.2,13.6
 2004/01/01,17:15,22.7,37,20.2,13.7
 2004/01/01,17:30,22.9,38,20.4,14.3
 2004/01/01,17:45,22.9,38,20.4,14.6
 2004/01/01,18:00,23.1,38,20.5,14.7
 2004/01/01,18:15,22.9,38,20.5,13.8
 2004/01/01,18:30,22.8,36,20.5,13.3
 2004/01/01,18:45,22.5,34,20.4,13.4
 2004/01/01,19:00,22.4,35,20.3,13.5
 2004/01/01,19:15,21.9,34,19.8,13
 2004/01/01,19:30,22.5,38,20,13.1
 2004/01/01,19:45,22.8,37,20.1,13.1
 2004/01/01,20:00,22.6,37,20.1,13.2
 2004/01/01,20:15,22.4,37,20.1,13.8
 2004/01/01,20:30,22.1,37,20.1,13.9
 2004/01/01,20:45,22.1,42,20,14
 2004/01/01,21:00,22.6,42,20.3,14
 2004/01/01,21:15,22.8,42,20.4,14.1
 2004/01/01,21:30,22.8,43,20.5,12.6
 2004/01/01,21:45,22.8,42,20.6,12.6
 2004/01/01,22:00,22.9,43,20.6,12.7
 2004/01/01,22:15,22.9,44,20.7,12.7
 2004/01/01,22:30,22.8,44,20.7,13.4
 2004/01/01,22:45,22.9,45,20.8,13.4
 2004/01/01,23:00,23,46,20.8,13.5
 2004/01/01,23:15,23,47,20.9,12.4
 2004/01/01,23:30,23,47,20.9,12.6
 2004/01/01,23:45,23.2,47,21,12.6
 2004/01/02, 0:00,23.1,47,21,12.7
 2004/01/02, 0:15,22.7,45,20.8,12.9
 2004/01/02, 0:30,22.3,44,20.6,13
 2004/01/02, 0:45,22.1,45,20.4,13.1
 2004/01/02, 1:00,21.8,45,20.3,13.1
 2004/01/02, 1:15,21.7,45,20.1,13.3
 2004/01/02, 1:30,21.5,45,20,13.3
 2004/01/02, 1:45,21.3,45,19.9,13.4
 2004/01/02, 2:00,21.2,45,19.7,13.5
 2004/01/02, 2:15,21.1,45,19.7,13.6
 2004/01/02, 2:30,20.9,45,19.5,13.7
 2004/01/02, 2:45,20.9,44,19.4,13.8
 2004/01/02, 3:00,20.7,45,19.3,13.9
 2004/01/02, 3:15,20.7,45,19.3,13.9
 2004/01/02, 3:30,20.7,45,19.2,14
 2004/01/02, 3:45,20.5,46,19.1,14.1
 2004/01/02, 4:00,20.5,45,19,14.2
 2004/01/02, 4:15,20.4,45,19,14.3
 2004/01/02, 4:30,20.4,45,18.9,14.3
 2004/01/02, 4:45,20.3,45,18.9,14.4
 2004/01/02, 5:00,20.3,45,18.8,14.5
 2004/01/02, 5:15,20.3,45,18.8,14.6
 2004/01/02, 5:30,20.2,45,18.6,14.6
 2004/01/02, 5:45,20.1,45,18.6,14.7
 2004/01/02, 6:00,20.2,44,18.6,14.8
 2004/01/02, 6:15,20.1,45,18.5,14.8
 2004/01/02, 6:30,20,44,18.5,14.9
 2004/01/02, 6:45,20,44,18.4,15
 2004/01/02, 7:00,19.9,45,18.4,15.1
 2004/01/02, 7:15,19.8,45,18.3,15.2
 2004/01/02, 7:30,19.9,45,18.3,15.2
 2004/01/02, 7:45,19.9,45,18.3,15.3
 2004/01/02, 8:00,21,45,18.4,14.4
 2004/01/02, 8:15,21.3,47,18.6,14.4
 2004/01/02, 8:30,21.8,43,18.8,13.3
 2004/01/02, 8:45,21.9,41,18.8,13.4
 2004/01/02, 9:00,22,40,18.8,13.4
 2004/01/02, 9:15,21.8,40,18.9,13.5
 2004/01/02, 9:30,22.4,42,19,14.2
 2004/01/02, 9:45,22.4,43,19.4,14.3
 2004/01/02,10:00,22.4,44,19.4,12.2
 2004/01/02,10:15,22.5,44,19.4,12.3
 2004/01/02,10:30,22.3,44,19.5,12.1
 2004/01/02,10:45,22.5,44,19.6,12
 2004/01/02,11:00,22.6,44,19.7,12.3
 2004/01/02,11:15,22.2,44,19.7,12.3
 2004/01/02,11:30,21.9,43,19.5,11.7
 2004/01/02,11:45,21.7,43,19.7,11.9
 2004/01/02,12:00,21.5,42,19.4,12
 2004/01/02,12:15,21.3,42,19.3,12.1
 2004/01/02,12:30,21.1,42,19.2,12.2
 2004/01/02,12:45,21.2,42,19.1,12.2
 2004/01/02,13:00,21.3,41,19,12.4
 2004/01/02,13:15,21.5,41,19,12.5
 2004/01/02,13:30,21.6,40,19,12.5
 2004/01/02,13:45,21.9,40,19,12.6
 2004/01/02,14:00,22,39,19,12.7
 2004/01/02,14:15,22,39,19,12.8
 2004/01/02,14:30,22,38,19,12.9
 2004/01/02,14:45,21.7,38,19,13
 2004/01/02,15:00,21.2,37,18.9,13.1
 2004/01/02,15:15,21,38,18.8,13.2
 2004/01/02,15:30,20.8,38,18.8,13.3
 2004/01/02,15:45,20.6,38,18.6,13.4
 2004/01/02,16:00,20.5,38,18.5,13.4
 2004/01/02,16:15,20.4,39,18.5,13.5
 2004/01/02,16:30,20.3,39,18.4,13.6
 2004/01/02,16:45,20.2,39,18.3,13.7
 2004/01/02,17:00,20.1,40,18.2,13.8
 2004/01/02,17:15,20,40,18.2,13.9
 2004/01/02,17:30,19.9,40,18.1,14
 2004/01/02,17:45,19.7,40,18.1,14
 2004/01/02,18:00,19.7,40,18,14.1
 2004/01/02,18:15,19.8,40,18,14.2
 2004/01/02,18:30,19.6,40,18,14.3
 2004/01/02,18:45,19.6,41,17.9,14.3
 2004/01/02,19:00,19.5,41,17.9,14.4
 2004/01/02,19:15,19.5,40,17.8,14.4
 2004/01/02,19:30,19.4,40,17.8,14.5
 2004/01/02,19:45,19.3,41,17.8,14.6
 2004/01/02,20:00,20.7,42,18.1,13.4
 2004/01/02,20:15,20.1,42,18,13.3
 2004/01/02,20:30,20.2,45,18,13.4
 2004/01/02,20:45,20.9,42,18.3,13.5
 2004/01/02,21:00,20.6,44,18.3,13.4
 2004/01/02,21:15,20.5,45,18.3,13.4
 2004/01/02,21:30,20.6,45,18.4,12.7
 2004/01/02,21:45,22.1,43,18.6,12.5
 2004/01/02,22:00,22.3,40,18.8,12.5
 2004/01/02,22:15,22.6,42,19.2,12.5
 2004/01/02,22:30,22.8,44,19.4,12.6
 2004/01/02,22:45,23,44,19.6,12.7
 2004/01/02,23:00,23,44,19.8,12.8
 2004/01/02,23:15,22.9,44,19.9,12.8
 2004/01/02,23:30,23,43,20,12.9
 2004/01/02,23:45,23.1,43,20.1,13
 2004/01/03, 0:00,23.1,42,20.2,13.1
 2004/01/03, 0:15,23.1,42,20.2,14
 2004/01/03, 0:30,23.1,43,20.3,13.7
 2004/01/03, 0:45,22.5,41,20.1,13.2
 2004/01/03, 1:00,22,40,20,13.3
 2004/01/03, 1:15,21.7,41,19.8,13.3
 2004/01/03, 1:30,21.3,41,19.7,13.4
 2004/01/03, 1:45,21.2,43,19.5,13.5
 2004/01/03, 2:00,21,42,19.3,13.6
 2004/01/03, 2:15,20.7,42,19.2,13.7
 2004/01/03, 2:30,20.7,42,19,13.7
 2004/01/03, 2:45,20.6,43,18.9,13.8
 2004/01/03, 3:00,20.5,43,18.8,13.9
 2004/01/03, 3:15,20.2,43,18.8,14
 2004/01/03, 3:30,20.2,42,18.6,14.1
 2004/01/03, 3:45,20.1,41,18.5,14.1
 2004/01/03, 4:00,19.9,41,18.4,14.2
 2004/01/03, 4:15,19.9,40,18.3,14.3
 2004/01/03, 4:30,19.7,40,18.2,14.3
 2004/01/03, 4:45,19.6,40,18.2,14.4
 2004/01/03, 5:00,19.5,40,18.1,14.5
 2004/01/03, 5:15,19.5,40,18,14.6
 2004/01/03, 5:30,19.5,40,18,14.6
 2004/01/03, 5:45,19.4,40,17.9,14.7
 2004/01/03, 6:00,19.3,41,17.9,14.7
 2004/01/03, 6:15,19.3,41,17.8,14.8
 2004/01/03, 6:30,19.2,40,17.8,14.9
 2004/01/03, 6:45,19.1,40,17.8,14.9
 2004/01/03, 7:00,19.2,40,17.6,15
 2004/01/03, 7:15,19.1,40,17.6,15.1
 2004/01/03, 7:30,19.1,40,17.6,15.1
 2004/01/03, 7:45,19.1,41,17.5,15.2
 2004/01/03, 8:00,19.1,42,17.5,15.3
 2004/01/03, 8:15,19.2,42,17.5,15.4
 2004/01/03, 8:30,19.1,42,17.6,15.4
 2004/01/03, 8:45,19.2,42,17.5,15.5
 2004/01/03, 9:00,19.2,41,17.5,15.6
 2004/01/03, 9:15,19.2,41,17.4,15.6
 2004/01/03, 9:30,19.4,41,17.4,14.8
 2004/01/03, 9:45,20,40,17.7,14.8
 2004/01/03,10:00,21,39,17.8,12.4
 2004/01/03,10:15,21.9,38,18.1,12.6
 2004/01/03,10:30,22.6,39,18.5,12.5
 2004/01/03,10:45,22.8,39,18.7,12.9
 2004/01/03,11:00,21.7,41,18.6,12.5
 2004/01/03,11:15,21.5,40,18.5,12.5
 2004/01/03,11:30,21.6,39,18.5,12.6
 2004/01/03,11:45,21.7,37,18.6,12.6
 2004/01/03,12:00,21.8,38,18.7,12.7
 2004/01/03,12:15,21.9,36,18.7,12.3
 2004/01/03,12:30,22,35,18.8,12.4
 2004/01/03,12:45,22.1,35,18.8,12.5
 2004/01/03,13:00,22.1,34,18.9,12.5
 2004/01/03,13:15,22.2,33,18.9,12.6
 2004/01/03,13:30,22.3,33,18.9,12.7
 2004/01/03,13:45,22.2,32,18.9,12.8
 2004/01/03,14:00,22,32,18.9,12.9
 2004/01/03,14:15,21.8,33,18.9,13
 2004/01/03,14:30,21.8,33,18.9,13.1
 2004/01/03,14:45,21.2,32,18.8,13.1
 2004/01/03,15:00,21,34,18.7,13.3
 2004/01/03,15:15,20.7,34,18.6,13.3
 2004/01/03,15:30,20.6,34,18.5,13.4
 2004/01/03,15:45,20.5,35,18.5,13.5
 2004/01/03,16:00,20.3,35,18.4,13.6
 2004/01/03,16:15,20.3,36,18.4,13.7
 2004/01/03,16:30,20.2,36,18.3,13.7
 2004/01/03,16:45,20.1,36,18.2,13.8
 2004/01/03,17:00,20,36,18.1,13.9
 2004/01/03,17:15,19.9,37,18.1,14
 2004/01/03,17:30,19.7,37,18,14
 2004/01/03,17:45,19.7,37,18,14.1
 2004/01/03,18:00,19.6,37,17.9,14.2
 2004/01/03,18:15,19.6,38,17.9,14.3
 2004/01/03,18:30,19.6,38,17.9,14.3
 2004/01/03,18:45,19.4,38,17.8,14.4
 2004/01/03,19:00,19.5,38,17.8,14.5
 2004/01/03,19:15,19.4,38,17.8,14.5
 2004/01/03,19:30,19.3,38,17.7,14.6
 2004/01/03,19:45,19.3,38,17.7,14.6
 2004/01/03,20:00,19.2,38,17.6,14.7
 2004/01/03,20:15,19.1,38,17.6,14.7
 2004/01/03,20:30,19.3,40,17.7,12.5
 2004/01/03,20:45,19.5,41,17.7,12.5
 2004/01/03,21:00,21.5,40,17.9,12.6
 2004/01/03,21:15,21.8,40,18.2,12.6
 2004/01/03,21:30,22.4,40,18.6,12
 2004/01/03,21:45,22.7,40,18.9,12.1
 2004/01/03,22:00,22.7,40,19.1,12.1
 2004/01/03,22:15,22.9,40,19.4,12.2
 2004/01/03,22:30,22.7,40,19.5,12
 2004/01/03,22:45,22.7,40,19.5,12
 2004/01/03,23:00,22.8,41,19.8,12
 2004/01/03,23:15,23,44,19.9,12.2
 2004/01/03,23:30,22.6,43,19.9,12.3
 2004/01/03,23:45,22.5,42,19.9,12.3
 2004/01/04, 0:00,23,40,20.1,12.4
 2004/01/04, 0:15,23.1,40,20.3,12.5
 2004/01/04, 0:30,23.2,40,20.4,13.5
 2004/01/04, 0:45,23.2,40,20.5,13.6
 2004/01/04, 1:00,23.3,39,20.6,13.7
 2004/01/04, 1:15,23.3,39,20.6,13.7
 2004/01/04, 1:30,23.1,39,20.7,13.8
 2004/01/04, 1:45,22.6,39,20.5,13.5
 2004/01/04, 2:00,22.2,37,20.3,13.6
 2004/01/04, 2:15,21.8,38,20.1,13.7
 2004/01/04, 2:30,21.4,37,19.9,13.8
 2004/01/04, 2:45,21.3,38,19.7,13.8
 2004/01/04, 3:00,21.1,38,19.5,13.9
 2004/01/04, 3:15,20.9,39,19.4,13.9
 2004/01/04, 3:30,20.8,40,19.3,14
 2004/01/04, 3:45,20.6,40,19.2,14.1
 2004/01/04, 4:00,20.5,41,19.1,14.2
 2004/01/04, 4:15,20.3,41,19.1,14.2
 2004/01/04, 4:30,20.3,41,18.9,14.3
 2004/01/04, 4:45,20.2,40,18.8,14.3
 2004/01/04, 5:00,20.1,41,18.7,14.4
 2004/01/04, 5:15,20,40,18.6,14.4
 2004/01/04, 5:30,20,40,18.5,14.5
 2004/01/04, 5:45,19.8,40,18.5,15.1
 2004/01/04, 6:00,19.7,41,18.4,15.7
 2004/01/04, 6:15,19.7,41,18.4,15.8
 2004/01/04, 6:30,19.7,41,18.3,15.9
 2004/01/04, 6:45,19.5,41,18.2,16
 2004/01/04, 7:00,19.6,41,18.1,16
 2004/01/04, 7:15,19.5,41,18.1,16.1
 2004/01/04, 7:30,19.4,42,18.1,16.1
 2004/01/04, 7:45,19.4,42,18,16.2
 2004/01/04, 8:00,19.4,41,18,16.2
 2004/01/04, 8:15,19.2,42,18,16.3
 2004/01/04, 8:30,19.3,42,17.9,16.3
 2004/01/04, 8:45,19.3,42,17.9,16.3
 2004/01/04, 9:00,19.1,42,17.9,16.4
 2004/01/04, 9:15,19.2,42,17.9,16.4
 2004/01/04, 9:30,19.2,42,17.8,16.4
 2004/01/04, 9:45,19.2,42,17.8,16.5
 2004/01/04,10:00,19.1,42,17.8,16.5
 2004/01/04,10:15,19.3,43,17.8,16.6
 2004/01/04,10:30,19.2,42,17.7,16.6
 2004/01/04,10:45,19.3,42,17.6,16.6
 2004/01/04,11:00,21.3,40,17.9,15.8
 2004/01/04,11:15,22.1,39,18.2,15.8
 2004/01/04,11:30,21.5,39,18.3,12.6
 2004/01/04,11:45,20.8,33,18.2,12.8
 2004/01/04,12:00,21.5,34,18.2,12.8
 2004/01/04,12:15,21.6,34,18.3,12.9
 2004/01/04,12:30,21.8,34,18.5,12.9
 2004/01/04,12:45,21.6,33,18.5,12
 2004/01/04,13:00,21.5,36,18.6,12.1
 2004/01/04,13:15,21.4,35,18.9,12.1
 2004/01/04,13:30,21.5,36,18.8,12.1
 2004/01/04,13:45,21.8,36,18.8,12.2
 2004/01/04,14:00,21.7,37,19,12.3
 2004/01/04,14:15,21.8,38,19,12.4
 2004/01/04,14:30,21,40,18.9,13.3
 2004/01/04,14:45,21.1,39,18.8,13.5
 2004/01/04,15:00,20.6,41,18.8,13.6
 2004/01/04,15:15,20.5,42,18.6,13.6
 2004/01/04,15:30,20.3,43,18.5,13.7
 2004/01/04,15:45,20.2,43,18.4,13.8
 2004/01/04,16:00,20,42,18.4,13.9
 2004/01/04,16:15,19.8,42,18.3,14
 2004/01/04,16:30,19.8,43,18.2,14
 2004/01/04,16:45,19.6,44,18.1,14.1
 2004/01/04,17:00,19.6,43,18,14.2
 2004/01/04,17:15,19.4,44,18,14.2
 2004/01/04,17:30,19.3,44,17.9,14.3
 2004/01/04,17:45,19.5,45,18,14.4
 2004/01/04,18:00,21.5,45,18.4,14.4
 2004/01/04,18:15,22.1,45,18.7,14.5
 2004/01/04,18:30,22.3,45,19,14.5
 2004/01/04,18:45,22.7,44,19.2,13.9
 2004/01/04,19:00,22.6,44,19.3,13.9
 2004/01/04,19:15,22.5,38,19.3,14
 2004/01/04,19:30,22.3,39,19.3,14
 2004/01/04,19:45,21.3,39,19,14.1
 2004/01/04,20:00,20.9,38,18.7,14.2
 2004/01/04,20:15,20.7,40,18.5,14.2
 2004/01/04,20:30,22.1,44,18.7,14.3
 2004/01/04,20:45,22.6,43,19.1,14.3
 2004/01/04,21:00,23,43,19.3,14.4
 2004/01/04,21:15,23.1,42,19.5,14.5
 2004/01/04,21:30,23.2,42,19.8,14.5
 2004/01/04,21:45,23.6,42,19.9,14.6
 2004/01/04,22:00,23.4,42,20.1,14.1
 2004/01/04,22:15,23.5,43,20.3,13
 2004/01/04,22:30,23.4,44,20.5,12.6
 2004/01/04,22:45,23.3,45,20.6,12.6
 2004/01/04,23:00,23.2,46,20.7,13.3
 2004/01/04,23:15,23.1,47,20.7,13.5
 2004/01/04,23:30,23.1,47,20.8,12.6
 2004/01/04,23:45,23.1,46,20.8,12.8
 2004/01/05, 0:00,23.1,45,20.8,12.8
 2004/01/05, 0:15,22.9,46,20.8,12.9
 2004/01/05, 0:30,22.9,45,20.8,13
 2004/01/05, 0:45,22.8,44,20.8,13.1
 2004/01/05, 1:00,22.7,44,20.8,13.2
 2004/01/05, 1:15,22.7,44,20.7,12.5
 2004/01/05, 1:30,22.6,44,20.7,12.8
 2004/01/05, 1:45,22.2,43,20.5,12.8
 2004/01/05, 2:00,21.8,43,20.4,12.9
 2004/01/05, 2:15,21.6,45,20.2,13
 2004/01/05, 2:30,21.4,45,20.1,13.1
 2004/01/05, 2:45,21.2,46,20,13.2
 2004/01/05, 3:00,21.1,46,19.8,13.3
 2004/01/05, 3:15,20.9,46,19.8,13.4
 2004/01/05, 3:30,20.8,46,19.7,13.5
 2004/01/05, 3:45,20.6,46,19.6,13.5
 2004/01/05, 4:00,20.6,46,19.4,13.6
 2004/01/05, 4:15,20.4,47,19.3,13.7
 2004/01/05, 4:30,20.4,47,19.2,13.8
 2004/01/05, 4:45,20.3,46,19.1,13.9
 2004/01/05, 5:00,20.3,47,19,13.9
 2004/01/05, 5:15,20.2,47,19,14
 2004/01/05, 5:30,20,47,18.9,14.1
 2004/01/05, 5:45,20.1,47,18.9,14.2
 2004/01/05, 6:00,20,47,18.8,14.3
 2004/01/05, 6:15,19.9,47,18.6,14.3
 2004/01/05, 6:30,19.7,48,18.6,14.4
 2004/01/05, 6:45,19.9,47,18.5,14.5
 2004/01/05, 7:00,19.8,47,18.5,14.5
 2004/01/05, 7:15,19.7,47,18.5,14.6
 2004/01/05, 7:30,20.6,47,18.5,13.8
 2004/01/05, 7:45,21.1,42,18.6,13.2
 2004/01/05, 8:00,22.1,43,18.7,13.3
 2004/01/05, 8:15,22.2,43,19.3,12
 2004/01/05, 8:30,22.3,44,19.2,12
 2004/01/05, 8:45,22.2,44,19.3,12
 2004/01/05, 9:00,22.3,46,19.4,12.1
 2004/01/05, 9:15,22.2,46,19.4,12.2
 2004/01/05, 9:30,22.4,45,19.4,12.8
 2004/01/05, 9:45,22.5,46,19.5,13
 2004/01/05,10:00,21.7,38,19.3,13.1
 2004/01/05,10:15,21,37,19.2,13.2
 2004/01/05,10:30,20.4,38,18.8,13.2
 2004/01/05,10:45,21.5,40,18.9,12.5
 2004/01/05,11:00,21.3,43,19,12.5
 2004/01/05,11:15,22.2,42,19.3,12.6
 2004/01/05,11:30,21.6,42,19.1,12.6
 2004/01/05,11:45,22,39,19.1,12.9
 2004/01/05,12:00,21.9,38,18.6,12.9
 2004/01/05,12:15,21.5,39,18.4,12.9
 2004/01/05,12:30,21.4,39,18.5,13
 2004/01/05,12:45,21.3,38,18.5,13.1
 2004/01/05,13:00,21,37,18.6,13.2
 2004/01/05,13:15,20.7,39,18.3,13.6
 2004/01/05,13:30,20.9,41,18.5,12.3
 2004/01/05,13:45,21,43,18.6,12.4
 2004/01/05,14:00,21.2,44,18.6,12.7
 2004/01/05,14:15,21.1,44,18.7,12.9
 2004/01/05,14:30,21.1,42,18.6,12.9
 2004/01/05,14:45,21.5,40,18.5,12.3
 2004/01/05,15:00,21.4,39,18.5,12.6
 2004/01/05,15:15,21.3,40,18.5,12.6
 2004/01/05,15:30,21.2,41,18.4,13.1
 2004/01/05,15:45,21.1,40,18.4,13.3
 2004/01/05,16:00,21.2,38,18.3,12.3
 2004/01/05,16:15,21.9,36,18.6,12.6
 2004/01/05,16:30,22,36,18.7,12.6
 2004/01/05,16:45,22.1,35,18.8,12.5
 2004/01/05,17:00,22.1,39,18.9,12.7
 2004/01/05,17:15,22.4,38,19,12.5
 2004/01/05,17:30,22.5,38,19.2,12.6
 2004/01/05,17:45,22.6,37,19.7,12.6
 2004/01/05,18:00,22.5,37,19.9,12.7
 2004/01/05,18:15,22.4,37,19.8,13.5
 2004/01/05,18:30,22.6,36,19.7,13.9
 2004/01/05,18:45,22.6,35,19.7,12.8
 2004/01/05,19:00,22.8,36,19.7,12.9
 2004/01/05,19:15,23.1,36,19.7,12.9
 2004/01/05,19:30,23,39,19.7,13
 2004/01/05,19:45,23.8,42,19.9,13.1
 2004/01/05,20:00,23.4,41,20.1,13.4
 2004/01/05,20:15,23.2,41,20.1,13.4
 2004/01/05,20:30,23.3,43,20.2,13.5
 2004/01/05,20:45,23.6,42,20.5,13.6
 2004/01/05,21:00,23.4,42,20.5,13.6
 2004/01/05,21:15,23.2,42,20.6,12
 2004/01/05,21:30,23.1,43,20.7,12
 2004/01/05,21:45,23.1,44,20.8,12
 2004/01/05,22:00,22.9,44,20.8,12
 2004/01/05,22:15,22.9,43,20.8,12.1
 2004/01/05,22:30,22.8,42,20.8,12.2
 2004/01/05,22:45,22.8,42,20.8,12.2
 2004/01/05,23:00,22.8,41,20.8,12.3
 2004/01/05,23:15,22.8,41,20.7,13.5
 2004/01/05,23:30,22.9,41,20.8,13.5
 2004/01/05,23:45,22.8,40,20.8,13.6
 2004/01/06, 0:00,22.9,41,20.8,13.6
 2004/01/06, 0:15,22.9,45,20.8,14.2
 2004/01/06, 0:30,23,42,20.9,14.2
 2004/01/06, 0:45,22.9,43,20.9,14.3
 2004/01/06, 1:00,23,42,20.9,14.4
 2004/01/06, 1:15,23,42,20.9,14.9
 2004/01/06, 1:30,22.6,42,20.8,13.1
 2004/01/06, 1:45,22.2,42,20.6,13.2
 2004/01/06, 2:00,22,42,20.4,13.2
 2004/01/06, 2:15,21.7,42,20.3,13.3
 2004/01/06, 2:30,21.5,42,20.1,13.4
 2004/01/06, 2:45,21.3,42,19.9,13.4
 2004/01/06, 3:00,21.1,42,19.8,13.5
 2004/01/06, 3:15,20.9,42,19.7,13.6
 2004/01/06, 3:30,20.8,42,19.5,13.7
 2004/01/06, 3:45,20.7,43,19.4,13.7
 2004/01/06, 4:00,20.6,42,19.3,13.8
 2004/01/06, 4:15,20.5,43,19.2,13.9
 2004/01/06, 4:30,20.3,42,19,13.9
 2004/01/06, 4:45,20.2,42,18.9,14
 2004/01/06, 5:00,20.1,43,18.8,14
 2004/01/06, 5:15,20.1,43,18.9,14.1
 2004/01/06, 5:30,20,43,18.6,14.2
 2004/01/06, 5:45,19.9,43,18.6,14.2
 2004/01/06, 6:00,19.7,43,18.6,14.3
 2004/01/06, 6:15,19.8,42,18.4,14.3
 2004/01/06, 6:30,19.7,43,18.3,14.4
 2004/01/06, 6:45,19.6,42,18.3,14.5
 2004/01/06, 7:00,19.4,42,18.1,14.5
 2004/01/06, 7:15,20.5,41,18.3,11.9
 2004/01/06, 7:30,19.7,40,17.9,12.1
 2004/01/06, 7:45,20.6,41,18.2,12
 2004/01/06, 8:00,21.7,40,18.5,12
 2004/01/06, 8:15,22.2,41,18.8,12.3
 2004/01/06, 8:30,22.4,41,19,12.4
 2004/01/06, 8:45,22.6,42,19.5,12.5
 2004/01/06, 9:00,23,43,20,12.5
 2004/01/06, 9:15,22.9,43,20.3,12.9
 2004/01/06, 9:30,22.9,41,19.9,13
 2004/01/06, 9:45,23,44,19.9,13
 2004/01/06,10:00,22.4,37,19.7,11.6
 2004/01/06,10:15,22.7,43,20.2,11.7
 2004/01/06,10:30,22.7,44,20,11.7
 2004/01/06,10:45,22.7,42,20,12
 2004/01/06,11:00,22.7,42,19.9,12
 2004/01/06,11:15,22.1,40,19.7,11.8
 2004/01/06,11:30,21.6,38,19.2,12.2
 2004/01/06,11:45,21.4,38,18.9,12
 2004/01/06,12:00,21.1,37,18.8,12.1
 2004/01/06,12:15,22.1,40,18.8,12.1
 2004/01/06,12:30,23.3,39,19.2,12.2
 2004/01/06,12:45,22.1,40,19.2,12.3
 2004/01/06,13:00,21.9,41,19.1,13.2
 2004/01/06,13:15,22.2,40,19.2,12.3
 2004/01/06,13:30,22.3,40,19.3,12.4
 2004/01/06,13:45,22.4,39,19.4,12.1
 2004/01/06,14:00,22.5,40,19.4,12.1
 2004/01/06,14:15,22.4,40,19.4,12.4
 2004/01/06,14:30,22.3,39,19.4,12.4
 2004/01/06,14:45,22.3,39,19.4,12.2
 2004/01/06,15:00,22.3,39,19.4,12.2
 2004/01/06,15:15,22.4,39,19.5,12.8
 2004/01/06,15:30,22,39,19.4,12.8
 2004/01/06,15:45,21.8,39,19.3,12.6
 2004/01/06,16:00,21.7,39,19.2,12.7
 2004/01/06,16:15,21.5,39,19,12.7
 2004/01/06,16:30,21.4,40,18.9,12.8
 2004/01/06,16:45,21.2,40,18.9,12.9
 2004/01/06,17:00,21.1,40,18.7,12.9
 2004/01/06,17:15,20.9,39,18.9,13.1
 2004/01/06,17:30,22.2,38,18.9,13.1
 2004/01/06,17:45,21.9,38,19,13.2
 2004/01/06,18:00,22.3,42,19.3,13.7
 2004/01/06,18:15,22.4,43,19.4,13.8
 2004/01/06,18:30,22.6,40,19.4,13.9
 2004/01/06,18:45,22.6,39,19.5,14
 2004/01/06,19:00,22.8,38,19.5,14
 2004/01/06,19:15,22.9,37,19.6,14.3
 2004/01/06,19:30,22.6,37,19.7,11.4
 2004/01/06,19:45,22.9,36,19.6,11.8
 2004/01/06,20:00,22.6,37,19.4,11.8
 2004/01/06,20:15,22.7,37,19.6,11.9
 2004/01/06,20:30,22.9,39,19.7,11.9
 2004/01/06,20:45,23.1,43,20.1,12
 2004/01/06,21:00,23,43,20.2,12.1
 2004/01/06,21:15,23,42,20.3,12.5
 2004/01/06,21:30,22.8,41,20.3,11.7
 2004/01/06,21:45,22.8,40,20.2,11.6
 2004/01/06,22:00,22.9,41,20.2,11.8
 2004/01/06,22:15,22.9,41,20.3,11.8
 2004/01/06,22:30,22.9,42,20.3,12.1
 2004/01/06,22:45,22.9,42,20.3,12.1
 2004/01/06,23:00,22.8,41,20.3,12.2
 2004/01/06,23:15,22.9,41,20.3,12.3
 2004/01/06,23:30,22.9,41,20.2,12.4
 2004/01/06,23:45,22.8,41,20.2,12.5
 2004/01/07, 0:00,22.8,40,20.2,12.6
 2004/01/07, 0:15,22.8,40,20.2,12.7
 2004/01/07, 0:30,22.8,41,20.2,12.7
 2004/01/07, 0:45,22.9,42,20.3,13.9
 2004/01/07, 1:00,22.9,43,20.4,14.1
 2004/01/07, 1:15,22.9,43,20.4,14.3
 2004/01/07, 1:30,22.8,43,20.5,14.4
 2004/01/07, 1:45,22.9,43,20.5,14.5
 2004/01/07, 2:00,22.8,43,20.6,14.5
 2004/01/07, 2:15,22.9,43,20.6,14.6
 2004/01/07, 2:30,22.9,43,20.6,14.7
 2004/01/07, 2:45,23,43,20.7,14.8
 2004/01/07, 3:00,22.9,43,20.7,14.8
 2004/01/07, 3:15,22.6,43,20.5,14.9
 2004/01/07, 3:30,22.2,43,20.4,15
 2004/01/07, 3:45,21.8,42,20.2,15
 2004/01/07, 4:00,21.6,42,20,15.1
 2004/01/07, 4:15,21.3,42,19.9,15.2
 2004/01/07, 4:30,21.2,43,19.8,15.3
 2004/01/07, 4:45,21.1,43,19.6,15.3
 2004/01/07, 5:00,20.9,43,19.5,15.4
 2004/01/07, 5:15,20.8,43,19.4,15.5
 2004/01/07, 5:30,20.5,43,19.2,15.5
 2004/01/07, 5:45,20.5,43,19.1,15.6
 2004/01/07, 6:00,20.4,43,19,15.6
 2004/01/07, 6:15,20.3,43,18.9,15.7
 2004/01/07, 6:30,20.1,43,18.8,15.8
 2004/01/07, 6:45,20,43,18.7,15.8
 2004/01/07, 7:00,20,42,18.6,15.9
 2004/01/07, 7:15,21,42,18.5,12.8
 2004/01/07, 7:30,21.3,39,18.6,11.8
 2004/01/07, 7:45,21.3,37,18.5,12.1
 2004/01/07, 8:00,21.7,40,18.6,12.2
 2004/01/07, 8:15,21.9,41,18.9,12.7
 2004/01/07, 8:30,22.2,43,19.6,12.8
 2004/01/07, 8:45,22.1,44,19.5,12.9
 2004/01/07, 9:00,21.4,42,19.3,12.9
 2004/01/07, 9:15,22.2,42,19.3,13
 2004/01/07, 9:30,22,44,19.6,13.1
 2004/01/07, 9:45,21.5,44,19.3,13.1
 2004/01/07,10:00,21.2,43,19.1,13.2
 2004/01/07,10:15,21.1,44,19,13.3
 2004/01/07,10:30,20.8,43,18.9,13.4
 2004/01/07,10:45,20.7,43,18.8,13.5
 2004/01/07,11:00,20.6,43,18.8,13.8
 2004/01/07,11:15,22,42,19.2,14.3
 2004/01/07,11:30,22.2,42,19.2,14.5
 2004/01/07,11:45,22.5,43,19.3,14.5
 2004/01/07,12:00,22.6,37,19.3,14.6
 2004/01/07,12:15,22.6,35,19,14.7
 2004/01/07,12:30,22.6,37,19,14.8
 2004/01/07,12:45,22.8,35,19.2,13.8
 2004/01/07,13:00,23,35,19.2,13.8
 2004/01/07,13:15,22.9,33,19.3,13.9
 2004/01/07,13:30,23,33,19.3,13.9
 2004/01/07,13:45,23,32,19.3,13.3
 2004/01/07,14:00,23,32,19.3,13.4
 2004/01/07,14:15,23.1,33,19.3,13.3
 2004/01/07,14:30,23.1,33,19.3,13.4
 2004/01/07,14:45,23.1,32,19.3,13.5
 2004/01/07,15:00,22.7,32,19.3,13.8
 2004/01/07,15:15,22.2,32,19.2,13.7
 2004/01/07,15:30,21.8,33,19,13.8
 2004/01/07,15:45,21.6,32,18.9,13.8
 2004/01/07,16:00,21.3,33,18.8,14.3
 2004/01/07,16:15,21.1,34,18.7,14.4
 2004/01/07,16:30,20.9,34,18.6,14.4
 2004/01/07,16:45,20.9,35,18.5,13.3
 2004/01/07,17:00,20.8,35,18.5,13.4
 2004/01/07,17:15,22,34,18.6,12.8
 2004/01/07,17:30,22.1,35,18.8,13
 2004/01/07,17:45,22.2,35,19,13.2
 2004/01/07,18:00,22.4,34,19,12.4
 2004/01/07,18:15,21.7,35,19.4,12.5
 2004/01/07,18:30,21.4,38,19,12.5
 2004/01/07,18:45,21.6,38,19,12.6
 2004/01/07,19:00,22.2,38,19.2,12.7
 2004/01/07,19:15,21.9,36,19.2,12.7
 2004/01/07,19:30,22,35,19.2,12.8
 2004/01/07,19:45,22.2,35,19.3,12.9
 2004/01/07,20:00,22.4,36,19.3,13